User: anonymous   Login
Location: Unspecified
(0.0000°N, 0.0000°E)
Time: 23:17:23
(UTC+00:00)
Language:

HUMSAT D - Orbit

View from above orbital plane
View from above orbital plane
View from above satellite
View from above satellite

Ground track
Ground track

The orbit data is extracted from the following two-line orbital elements,

1 39433U 13066T   18051.12967698  .00000410  00000-0  45766-4 0  9998
2 39433  97.6202 111.5166 0032474 111.7138 248.7544 14.91751485230973
Epoch (UTC): 20 February 2018 03:06:44
Eccentricity: 0.0032474
inclination: 97.6202°
perigee height: 570 km
apogee height: 615 km
right ascension of ascending node: 111.5166°
argument of perigee: 111.7138°
revolutions per day: 14.91751485
mean anomaly at epoch: 248.7544°
orbit number at epoch: 23097

The dashed part of the orbit path shows where the satellite is in the earth's shadow,  

DLR